GFSNIL_sfc_wetblb_159.txt.gz
Wetbulb
56.44 55.09 53.49 52.43 51.69 50.54 50.25 50.05 51.19 52.94 51.53 50.87 50.20 49.47 47.61 47.17 47.74 47.45 48.12 47.90 47.72 46.79
52.69 51.86 50.70 50.09 50.44 50.59 50.50 52.86 52.34 50.01 47.59 47.02 46.77 46.26 45.68 45.37 45.95 45.99 46.32 46.52 46.31 45.67
50.66 50.77 50.41 50.65 50.01 50.22 50.79 50.63 49.06 47.14 46.09 45.65 45.61 45.17 44.44 44.55 45.86 45.66 45.65 46.67 45.68 44.84
49.91 50.07 50.09 49.30 48.67 48.45 48.73 49.30 48.19 46.64 45.91 45.24 44.59 44.01 43.53 44.57 45.73 45.63 45.25 45.79 46.20 46.27
48.58 48.22 48.01 47.91 47.75 47.76 47.53 47.70 46.31 46.12 45.76 45.62 44.86 43.64 43.79 43.80 44.25 44.51 45.07 45.84 45.81 45.83
47.36 47.61 46.97 46.81 46.65 47.04 46.68 45.35 44.88 45.21 45.16 45.30 44.85 44.23 43.79 43.62 43.28 43.48 44.60 45.32 45.42 45.15
46.66 46.63 46.22 46.08 45.92 46.47 46.28 44.88 44.51 44.79 45.33 45.16 44.51 44.22 44.00 43.65 42.69 42.84 44.16 45.22 45.31 45.24
46.49 46.38 46.26 45.69 45.49 45.96 46.22 45.99 46.17 45.96 45.23 44.01 43.74 43.97 43.28 42.94 42.19 42.15 42.80 43.73 44.73 45.57
46.52 45.57 44.70 44.64 44.74 44.63 44.62 44.60 44.87 44.14 42.76 41.24 43.74 43.49 44.66 43.70 41.40 41.77 41.50 41.61 42.98 44.23
45.23 44.51 43.87 44.25 44.12 42.95 41.80 42.18 42.46 41.44 41.04 40.18 40.87 42.55 42.54 44.60 41.12 41.01 41.04 41.38 43.76 45.08
44.90 44.04 43.26 42.93 42.16 41.62 40.86 41.13 41.18 40.32 39.84 39.39 41.22 41.80 41.48 43.22 40.81 41.48 42.06 44.81 45.48 45.73
44.21 42.89 42.35 41.60 40.94 40.96 40.90 41.65 42.22 40.87 40.49 39.42 38.77 41.15 40.81 41.11 41.28 41.74 41.54 44.33 46.49 45.85
44.12 42.99 41.78 41.22 41.26 40.67 41.09 41.79 43.40 41.94 40.89 42.00 38.67 40.69 40.08 40.02 39.55 39.12 40.48 41.88 43.06 44.60
42.80 42.36 41.51 41.13 40.30 39.57 39.35 39.06 38.62 38.83 38.67 39.04 39.73 38.78 39.78 39.73 37.35 37.46 38.87 40.60 41.69 42.85

GFSNIL_sfc_wetblb_162.txt.gz
Wetbulb
55.27 53.71 52.31 51.83 50.92 50.54 50.81 51.61 52.05 50.14 49.70 49.58 49.75 49.32 49.06 48.78 49.29 49.39 48.99 48.65 48.67 48.55
51.80 51.24 50.58 50.86 51.34 51.42 51.70 50.15 49.31 48.42 47.79 48.12 48.45 48.22 48.04 47.60 47.73 48.56 48.50 48.36 48.42 47.99
50.92 51.38 51.30 51.43 50.84 50.55 49.61 48.89 47.92 47.33 47.09 46.99 46.98 47.13 47.38 47.21 48.13 47.94 47.93 48.37 48.52 48.25
50.01 49.94 50.08 49.72 49.74 49.50 48.79 48.23 47.63 47.45 47.09 46.54 46.11 46.15 46.06 47.06 47.25 47.54 47.79 48.36 48.13 48.02
48.88 48.77 48.52 48.33 48.44 48.47 47.14 47.25 47.31 47.49 47.04 46.77 46.36 46.03 45.55 45.42 45.85 46.18 46.76 47.40 47.64 47.66
47.70 47.40 47.00 47.48 47.70 47.00 46.59 46.42 46.78 46.96 46.57 46.19 45.84 45.45 45.64 45.38 45.36 45.92 46.55 47.01 47.15 47.67
46.77 46.41 46.56 47.10 47.14 47.01 46.96 46.55 46.48 46.41 46.12 45.50 45.04 45.22 45.55 45.29 45.29 45.87 46.57 47.05 47.14 47.97
46.57 46.82 46.71 46.63 47.07 47.28 47.24 47.05 47.13 45.24 44.39 44.55 44.84 44.89 45.62 44.82 44.81 45.13 45.73 46.41 46.62 48.11
46.55 46.34 45.85 46.08 45.97 45.87 45.67 45.23 44.56 43.42 43.25 42.87 44.24 43.33 45.46 44.51 44.49 44.77 44.97 45.48 46.48 47.42
45.81 45.45 45.48 45.43 45.03 44.09 43.76 43.68 42.54 42.48 42.76 42.49 43.03 42.19 43.13 44.63 44.53 44.84 45.27 46.31 46.78 46.62
45.21 44.65 44.43 44.31 43.63 43.38 43.58 43.16 42.24 42.05 42.10 42.35 43.14 41.68 41.65 43.44 44.80 45.08 45.50 46.33 46.92 46.24
44.52 43.80 43.72 43.17 42.78 43.18 43.60 43.07 42.54 42.59 42.13 41.76 42.33 40.92 40.74 42.31 43.87 44.04 44.29 45.29 45.68 45.62
44.78 44.02 43.30 43.23 43.05 43.02 43.59 43.52 43.22 42.05 41.89 42.03 41.34 40.27 39.98 41.22 42.50 42.79 42.81 44.34 44.40 43.50
44.00 43.40 43.23 42.40 42.03 41.56 41.34 40.83 40.75 40.59 40.91 41.17 41.01 41.29 39.79 39.61 41.28 41.56 41.85 41.86 41.79 42.30

GFSNIL_sfc_wetblb_165.txt.gz
Wetbulb
64.76 62.01 59.25 59.17 57.35 56.11 54.79 53.33 53.48 52.94 53.28 54.11 54.70 55.11 55.24 54.25 54.29 55.05 54.22 54.27 53.90 53.24
60.11 59.22 57.46 57.45 57.63 56.00 54.44 53.65 53.62 53.67 53.70 53.95 54.03 54.30 54.64 53.89 53.83 54.20 54.14 53.96 54.15 53.64
57.69 57.80 57.87 58.13 56.69 55.18 54.16 53.60 52.52 52.31 52.58 52.50 52.62 53.35 53.79 53.37 53.93 53.70 53.84 53.91 54.02 54.30
56.82 57.03 57.08 55.96 55.03 54.32 54.12 53.66 52.96 52.72 52.44 52.27 52.32 52.73 52.97 53.05 52.86 53.23 53.93 54.02 54.25 53.21
55.79 55.93 55.53 54.62 54.18 54.15 53.26 53.45 52.80 52.69 52.58 52.42 52.29 52.51 52.13 51.88 52.42 52.77 52.69 53.53 53.69 51.89
54.77 54.78 54.32 53.74 53.65 53.73 53.01 52.80 52.81 52.80 52.26 51.82 51.81 52.10 52.16 51.88 52.12 52.99 53.18 53.22 53.11 52.70
53.98 54.04 53.67 53.48 53.32 53.18 53.17 52.54 52.25 52.02 51.74 51.56 51.53 51.89 52.17 52.49 52.71 52.82 52.78 53.22 53.09 53.40
53.58 53.81 53.40 52.99 53.05 53.14 52.75 52.00 51.93 51.49 51.39 51.61 51.09 50.11 52.12 52.20 52.28 53.07 53.39 53.17 52.91 53.05
52.62 52.83 52.61 52.51 52.47 52.23 51.32 51.20 51.22 50.99 51.11 51.02 49.38 43.91 45.75 49.98 52.89 53.16 52.72 52.18 52.86 53.05
52.01 51.67 51.58 51.81 51.75 51.31 50.91 51.31 50.50 50.68 51.22 50.13 49.05 42.75 43.62 46.23 52.61 52.51 51.99 51.76 51.64 51.20
51.25 50.64 50.94 51.24 50.99 51.12 51.15 50.59 50.01 49.94 50.65 49.81 46.88 41.87 41.91 44.20 52.23 51.77 51.11 50.88 50.20 49.43
50.91 50.42 50.42 50.45 50.83 51.21 50.87 50.39 49.36 49.89 49.84 50.12 48.89 41.19 40.94 46.53 51.08 50.93 50.21 49.56 48.88 46.22
50.81 50.74 50.58 51.11 51.09 51.32 51.04 49.70 49.49 48.94 49.22 44.53 48.78 40.44 40.26 43.81 50.22 49.95 48.69 49.09 47.97 41.40
51.16 51.11 51.17 51.07 50.91 50.50 49.49 49.24 48.95 48.33 48.87 48.96 45.83 46.30 39.90 40.19 48.58 46.95 46.88 45.73 45.32 45.54

GFSNIL_sfc_wetblb_171.txt.gz
Wetbulb
70.74 69.09 68.69 68.84 67.37 65.03 63.16 61.75 62.16 61.36 61.34 60.90 61.10 61.34 61.65 60.20 59.97 61.40 60.90 61.10 60.89 60.15
69.53 69.26 67.32 66.64 65.82 63.30 63.14 61.09 60.98 60.71 60.18 60.30 60.23 60.79 61.07 60.01 60.75 61.25 61.28 61.37 61.05 59.99
68.30 67.55 66.12 64.68 62.78 61.85 61.06 60.72 59.92 59.55 59.54 59.26 59.59 60.00 60.95 60.95 61.04 61.07 60.27 60.36 60.46 60.02
66.26 65.65 64.39 62.70 61.61 60.84 60.72 59.97 59.05 59.03 58.93 58.89 59.06 59.79 60.09 60.35 60.45 60.11 60.46 60.47 59.56 59.39
65.04 63.53 62.19 60.89 60.62 60.33 59.55 59.48 59.03 58.93 58.90 59.36 59.63 60.00 59.63 59.39 59.88 59.61 59.01 59.11 59.58 59.11
62.87 61.58 60.59 60.16 59.94 59.71 59.43 59.01 59.11 59.38 59.20 59.09 59.07 59.42 59.81 59.71 59.30 59.09 58.99 58.97 58.95 58.69
61.13 60.47 59.89 59.77 59.52 59.37 59.09 58.71 59.11 59.55 59.30 59.30 59.43 59.50 59.68 59.68 59.81 59.66 59.29 59.39 59.20 58.58
60.14 59.86 59.42 59.09 59.00 58.80 58.47 58.71 59.40 59.18 59.11 58.85 56.95 54.17 55.52 59.59 59.57 59.36 59.44 59.46 58.70 58.40
58.90 58.83 58.76 58.90 58.47 57.97 58.17 58.64 59.12 58.99 58.44 57.14 53.27 44.92 46.47 51.39 59.43 59.06 58.33 57.71 57.20 56.31
58.68 57.92 57.95 58.01 57.48 57.57 58.23 59.04 58.16 58.26 58.15 56.56 53.12 43.40 44.14 46.40 58.98 58.67 57.93 57.19 55.63 53.10
57.82 57.48 57.61 57.34 57.24 57.65 58.48 57.57 57.02 56.57 57.13 55.81 49.96 42.77 42.52 44.52 55.89 58.80 57.94 56.77 54.82 52.39
57.26 57.05 56.93 56.57 57.16 57.82 57.65 57.07 56.47 56.90 56.31 56.54 51.91 41.86 41.63 45.94 58.67 57.69 56.99 55.94 51.44 49.98
57.00 56.90 56.80 57.18 57.34 57.87 57.12 57.11 56.95 55.99 56.22 49.76 52.74 39.86 40.52 41.95 55.64 55.21 54.78 55.42 47.85 41.29
57.01 57.31 57.58 57.71 57.73 56.50 57.14 55.99 55.75 55.20 55.70 54.47 52.27 46.22 40.18 39.90 49.88 49.26 52.40 51.13 49.17 48.35

GFSNIL_sfc_wetblb_174.txt.gz
Wetbulb
71.07 69.76 69.11 68.04 66.81 63.61 61.70 61.12 62.61 61.84 61.92 61.58 61.71 62.00 61.95 60.82 60.54 61.82 60.11 60.47 60.43 59.42
69.65 68.57 65.32 64.90 63.65 62.06 61.84 61.01 61.19 60.83 60.67 60.77 60.98 61.75 60.93 60.80 60.74 61.49 61.32 60.14 59.44 58.57
66.91 66.06 65.16 63.56 61.74 60.79 60.51 60.36 59.92 59.76 60.02 59.85 60.57 61.25 61.79 60.58 61.43 60.39 60.50 59.53 59.28 59.04
65.29 64.43 63.11 61.58 60.70 60.51 60.79 60.43 59.37 59.44 59.40 59.41 60.04 60.76 60.82 61.18 60.65 60.13 59.83 59.94 59.25 58.43
63.62 62.58 61.13 60.21 60.02 60.34 59.75 60.09 59.37 59.57 59.63 59.40 59.53 60.71 59.96 59.07 59.50 58.79 58.10 58.63 58.55 57.27
61.64 60.67 59.92 59.46 59.71 59.62 59.60 59.77 59.70 59.72 59.07 59.05 59.21 59.56 59.96 59.36 58.94 58.74 58.78 58.61 58.17 57.31
59.84 59.69 59.25 59.49 59.70 59.24 59.37 59.40 59.54 59.65 59.32 59.55 58.93 57.10 59.34 59.60 59.64 59.48 59.12 59.05 58.55 56.79
59.50 59.47 59.11 58.72 58.67 59.17 59.40 59.38 59.44 59.04 57.82 55.87 53.42 49.74 50.53 55.47 59.11 58.83 58.38 57.70 55.40 54.90
58.56 58.75 58.44 58.07 58.12 58.52 58.77 59.46 59.10 58.17 56.04 53.16 50.30 45.51 46.58 49.04 56.90 58.23 57.48 55.65 53.86 54.07
58.35 57.94 57.68 57.41 57.70 58.47 59.02 59.04 58.25 57.15 55.73 52.67 49.47 44.01 44.00 45.98 52.96 58.37 57.17 55.73 52.43 51.23
57.72 57.28 57.14 57.34 57.48 57.82 57.41 56.69 55.90 56.05 54.91 51.24 45.55 42.56 41.90 42.89 51.65 58.42 57.25 54.91 52.06 49.24
57.65 56.80 56.67 56.28 57.28 57.37 56.01 55.27 55.09 55.20 55.60 51.66 46.33 41.57 40.89 44.09 52.19 57.31 54.87 47.38 46.70 46.16
57.43 56.98 56.12 57.13 57.02 57.49 56.85 55.76 55.33 55.32 55.03 50.43 46.96 40.35 40.51 42.70 50.17 53.23 53.18 47.63 44.77 42.63
57.65 57.06 57.44 57.25 56.85 57.99 57.06 56.23 55.28 55.20 54.57 53.25 47.85 44.31 40.42 40.70 46.40 47.31 50.12 47.87 45.46 46.50

GFSNIL_sfc_wetblb_180.txt.gz
Wetbulb
64.82 62.88 60.95 59.71 58.51 56.96 55.61 54.62 54.68 54.94 55.18 55.63 55.79 55.51 55.07 54.71 53.99 53.26 53.04 52.40 52.13 52.38
64.97 62.71 61.01 59.50 57.66 56.41 55.37 55.46 54.56 54.53 54.36 55.18 55.75 55.79 54.97 54.59 53.48 53.20 52.82 52.52 52.70 52.08
63.55 61.61 59.89 57.94 56.56 55.57 54.02 53.88 53.56 53.46 54.24 54.74 55.04 55.18 54.42 53.52 53.07 53.12 53.09 52.90 50.74 49.34
59.84 59.31 58.32 56.49 55.25 54.05 53.02 53.07 53.13 53.88 54.17 54.90 55.24 54.68 53.82 53.31 53.71 53.37 52.34 51.44 50.65 48.79
57.99 57.38 55.66 54.44 53.76 53.64 52.91 52.89 53.22 54.13 54.87 55.24 55.09 54.40 53.72 53.70 53.25 52.84 52.44 50.45 48.88 47.54
56.40 55.07 53.94 53.73 53.34 53.04 52.42 52.63 53.84 54.56 54.25 54.44 54.15 53.53 53.31 53.80 53.51 52.66 52.05 49.35 47.03 45.65
56.36 54.18 53.71 53.31 52.37 52.50 53.16 53.04 52.89 52.67 52.03 51.95 52.00 53.50 54.04 53.80 51.98 49.85 49.57 48.41 47.38 45.51
54.75 54.22 53.50 53.40 53.74 53.95 53.55 51.73 51.00 49.91 48.94 48.22 48.45 49.45 52.33 52.65 50.40 47.61 47.28 47.82 47.14 44.28
54.58 54.27 53.39 53.71 53.51 53.33 51.15 49.48 48.75 47.58 47.41 45.66 45.87 45.31 48.85 51.51 50.67 48.76 45.50 44.37 44.03 43.04
54.47 53.67 53.54 53.77 53.35 52.02 49.42 47.72 46.06 45.21 44.38 42.43 40.92 42.25 44.43 49.04 50.33 47.22 43.92 40.50 39.92 41.04
54.05 53.40 53.43 53.49 52.36 51.21 49.62 47.20 44.97 42.39 40.86 39.75 39.96 41.74 42.25 46.84 48.73 43.85 40.53 39.58 39.26 37.97
54.03 53.44 53.41 52.00 51.65 51.33 49.84 46.61 44.00 42.32 39.15 37.14 37.88 41.52 43.20 47.28 42.30 39.67 38.71 39.80 39.58 38.80
53.98 54.13 52.64 51.63 50.88 50.33 50.40 48.31 45.35 40.98 37.69 40.65 38.16 41.05 43.40 43.77 40.71 37.96 39.25 39.20 39.35 42.39
54.35 53.35 51.98 50.95 50.74 50.69 51.33 48.06 42.72 40.17 38.36 37.39 38.24 38.64 40.13 40.86 42.64 41.55 39.31 38.10 38.17 38.91

GFSNIL_sfc_wetblb_183.txt.gz
Wetbulb
63.82 62.01 60.45 58.74 57.71 56.63 55.56 54.55 54.16 54.45 54.72 55.12 55.08 54.38 53.44 52.83 52.31 51.90 51.77 51.19 50.94 50.14
62.77 60.90 59.01 57.69 57.04 55.98 55.30 55.11 54.61 54.57 54.11 54.45 54.52 54.32 53.07 52.40 51.92 52.28 51.28 50.83 49.74 48.17
62.32 60.51 58.82 57.84 56.44 55.94 54.34 53.84 53.50 53.53 53.53 53.85 53.81 53.92 52.77 51.52 51.79 51.72 50.27 48.36 46.93 46.18
60.65 59.41 58.48 57.41 56.00 54.25 53.48 53.10 53.09 53.68 53.87 53.81 53.41 52.93 52.15 52.13 52.42 50.97 49.27 48.62 47.21 45.72
59.30 58.02 57.30 56.21 54.60 53.42 52.54 52.52 53.23 53.82 54.47 54.81 53.85 52.99 53.04 53.19 52.35 50.63 48.65 46.64 44.96 43.11
57.89 57.39 56.00 54.52 52.80 52.78 52.10 52.19 53.09 53.94 54.06 54.08 53.68 52.89 52.55 52.60 52.10 51.08 47.48 45.20 43.21 42.20
57.69 56.71 55.23 53.36 52.68 52.35 52.20 52.26 52.32 52.66 53.13 53.21 52.96 52.78 52.75 50.87 49.04 47.78 46.71 45.71 43.21 42.56
57.50 56.59 54.15 52.80 52.37 52.23 52.52 51.65 51.00 50.47 49.84 50.27 51.56 52.74 50.93 48.66 47.19 46.29 45.49 45.72 43.84 42.89
55.56 54.21 53.12 52.72 52.43 51.63 50.44 49.68 49.55 48.80 47.98 46.80 47.79 48.05 50.07 48.90 45.20 44.96 43.74 40.88 39.99 40.53
53.98 53.28 53.22 53.03 51.36 49.54 48.42 47.88 46.94 45.71 45.21 43.00 41.79 45.01 47.75 48.97 45.46 41.77 38.52 37.82 37.98 39.69
53.54 53.25 53.11 52.16 49.95 48.03 47.36 46.55 45.21 43.72 42.69 41.43 40.38 43.23 46.10 46.84 42.57 38.81 38.55 38.59 37.91 36.88
53.78 53.17 52.80 51.03 49.23 47.91 45.88 44.04 41.84 41.38 40.17 39.99 39.78 42.69 45.17 42.84 39.05 38.19 38.01 38.90 38.52 37.56
53.88 53.31 52.50 50.75 49.41 47.55 45.39 43.38 41.89 37.68 37.48 42.03 41.15 43.07 42.59 40.73 39.32 37.44 38.28 38.39 37.78 41.83
53.91 52.90 52.04 50.65 49.73 47.44 44.70 40.81 37.01 36.47 35.81 37.24 40.49 41.79 40.97 40.93 39.44 38.46 37.40 36.98 36.94 37.73